Grand Rapids, MN

12:15 PM CDT on April 26, 2017 (GMT -0500)
Grand Rapids-Itasca County-Newstrom Field

Weather History for KGPZ - December, 2014

Change the Weather History Date:

Friday, December 5, 2014

  Actual Average Record
Temperature  
Mean Temperature 24 °F -  
Max Temperature 33 °F 25 °F 46 °F (1939)
Min Temperature 12 °F 9 °F -22 °F (1955)
Degree Days  
Heating Degree Days 42    
Moisture  
Dew Point 14 °F    
Average Humidity 71    
Maximum Humidity 93    
Minimum Humidity 51    
Precipitation  
Precipitation 0.00 in - - ()
Sea Level Pressure  
Sea Level Pressure 30.15 in    
Wind  
Wind Speed 8 mph (West)    
Max Wind Speed 14 mph    
Max Gust Speed 16 mph    
Visibility 9 miles    
Events      
Averages and records for this station are not official NWS values.
T = Trace of Precipitation, MM = Missing Value Source: NWS Daily Summary

Daily Weather History Graph

Daily Weather History Graph

Search for Another Location

Airport or City:

Trip Planner

Search our weather history database for the weather conditions in past years. The results will help you decide how hot, cold, wet, or windy it might be!

Date:

Astronomy

Dec. 05, 2014 Rise Set
Actual Time 7:44 AM CST 4:24 PM CST
Civil Twilight 7:09 AM CST 4:59 PM CST
Nautical Twilight 6:30 AM CST 5:38 PM CST
Astronomical Twilight 5:53 AM CST 6:15 PM CST
Moon 4:17 PM CST (12/5) 6:32 AM CST (12/5)
Length of Visible Light 9h 50m
Length of Day
8h 40m
Waxing Gibbous, 99% of the Moon is Illuminated
Dec 5
Waxing Gibbous
Dec 6
Full
Dec 14
Last Quarter
Dec 21
New
Dec 28
First Quarter

Hourly Weather History & Observations

Time (CST) Temp. Windchill Dew Point Humidity Pressure Visibility Wind Dir Wind Speed Gust Speed Precip Events Conditions
12:15 AM 19.4 °F 8.6 °F 10.4 °F 68% 30.00 in 10.0 mi South 9.2 mph - N/A   Clear
12:35 AM 21.2 °F 8.9 °F 10.4 °F 63% 30.00 in 10.0 mi South 12.7 mph 16.1 mph N/A   Clear
12:55 AM 21.2 °F 10.1 °F 10.4 °F 63% 29.99 in 10.0 mi South 10.4 mph - N/A   Clear
1:15 AM 21.2 °F 8.9 °F 12.2 °F 68% 29.99 in 10.0 mi South 12.7 mph - N/A   Scattered Clouds
1:35 AM 21.2 °F 10.1 °F 12.2 °F 68% 30.00 in 10.0 mi South 10.4 mph - N/A   Mostly Cloudy
1:55 AM 21.2 °F 8.9 °F 12.2 °F 68% 30.00 in 10.0 mi South 12.7 mph - N/A   Overcast
2:15 AM 21.2 °F 9.5 °F 12.2 °F 68% 30.00 in 10.0 mi South 11.5 mph - N/A   Overcast
2:35 AM 21.2 °F 10.9 °F 14.0 °F 74% 30.00 in 10.0 mi South 9.2 mph - N/A   Overcast
2:55 AM 21.2 °F 10.1 °F 14.0 °F 74% 30.00 in 10.0 mi South 10.4 mph - N/A   Overcast
3:15 AM 21.2 °F 10.9 °F 14.0 °F 74% 30.00 in 10.0 mi South 9.2 mph - N/A   Overcast
3:35 AM 21.2 °F 10.9 °F 15.8 °F 80% 30.00 in 10.0 mi South 9.2 mph - N/A   Mostly Cloudy
3:55 AM 21.2 °F 12.6 °F 15.8 °F 80% 30.00 in 10.0 mi South 6.9 mph - N/A   Clear
4:15 AM 21.2 °F 13.6 °F 15.8 °F 80% 30.00 in 10.0 mi South 5.8 mph - N/A   Clear
4:35 AM 19.4 °F 11.5 °F 14.0 °F 80% 30.01 in 10.0 mi South 5.8 mph - N/A   Clear
4:55 AM 19.4 °F 11.5 °F 12.2 °F 74% 30.01 in 10.0 mi South 5.8 mph - N/A   Clear
5:15 AM 17.6 °F 8.2 °F 12.2 °F 79% 30.02 in 10.0 mi South 6.9 mph - N/A   Clear
5:35 AM 17.6 °F 10.7 °F 12.2 °F 79% 30.02 in 10.0 mi South 4.6 mph - N/A   Clear
5:55 AM 17.6 °F 10.7 °F 14.0 °F 86% 30.02 in 10.0 mi South 4.6 mph - N/A   Clear
6:15 AM 17.6 °F 10.7 °F 12.2 °F 79% 30.02 in 10.0 mi South 4.6 mph - N/A   Clear
6:35 AM 15.8 °F - 12.2 °F 86% 30.03 in 8.0 mi Calm Calm - N/A   Clear
6:55 AM 14.0 °F 5.1 °F 8.6 °F 79% 30.03 in 8.0 mi South 5.8 mph - N/A   Clear
7:15 AM 17.6 °F 8.2 °F 15.8 °F 93% 30.03 in 8.0 mi South 6.9 mph - N/A   Clear
7:35 AM 17.6 °F 9.3 °F 15.8 °F 93% 30.04 in 6.0 mi South 5.8 mph - N/A   Clear
7:55 AM 17.6 °F - 12.2 °F 79% 30.05 in 5.0 mi Calm Calm - N/A   Clear
8:15 AM 15.8 °F 10.2 °F 12.2 °F 86% 30.06 in 6.0 mi South 3.5 mph - N/A   Clear
8:35 AM 17.6 °F 12.3 °F 15.8 °F 93% 30.07 in 5.0 mi South 3.5 mph - N/A   Clear
8:55 AM 17.6 °F 12.3 °F 15.8 °F 93% 30.07 in 5.0 mi South 3.5 mph - N/A   Clear
9:15 AM 19.4 °F 14.3 °F 17.6 °F 93% 30.09 in 5.0 mi SSW 3.5 mph - N/A   Clear
9:35 AM 21.2 °F - 19.4 °F 93% 30.10 in 7.0 mi Calm Calm - N/A   Clear
9:55 AM 24.8 °F 20.5 °F 19.4 °F 80% 30.11 in 8.0 mi WSW 3.5 mph - N/A   Clear
10:15 AM 24.8 °F 19.1 °F 19.4 °F 80% 30.11 in 9.0 mi West 4.6 mph - N/A   Scattered Clouds
10:35 AM 26.6 °F 19.1 °F 19.4 °F 74% 30.12 in 10.0 mi WNW 6.9 mph - N/A   Partly Cloudy
10:55 AM 26.6 °F 16.8 °F 19.4 °F 74% 30.12 in 10.0 mi West 10.4 mph - N/A   Partly Cloudy
11:15 AM 26.6 °F 19.1 °F 19.4 °F 74% 30.12 in 10.0 mi WNW 6.9 mph - N/A   Clear
11:35 AM 26.6 °F 20.0 °F 19.4 °F 74% 30.12 in 10.0 mi West 5.8 mph - N/A   Clear
11:55 AM 28.4 °F 22.2 °F 19.4 °F 69% 30.12 in 10.0 mi WNW 5.8 mph - N/A   Clear
12:15 PM 28.4 °F 23.3 °F 19.4 °F 69% 30.12 in 10.0 mi WNW 4.6 mph - N/A   Clear
12:35 PM 28.4 °F 22.2 °F 19.4 °F 69% 30.13 in 10.0 mi WNW 5.8 mph - N/A   Clear
12:55 PM 30.2 °F 25.4 °F 19.4 °F 64% 30.13 in 10.0 mi West 4.6 mph - N/A   Clear
1:15 PM 30.2 °F 24.3 °F 19.4 °F 64% 30.13 in 10.0 mi NNW 5.8 mph - N/A   Clear
1:35 PM 30.2 °F 23.4 °F 19.4 °F 64% 30.13 in 10.0 mi WNW 6.9 mph - N/A   Clear
1:55 PM 32.0 °F 25.6 °F 17.6 °F 55% 30.14 in 10.0 mi WNW 6.9 mph - N/A   Clear
2:15 PM 32.0 °F 25.6 °F 17.6 °F 55% 30.14 in 10.0 mi NW 6.9 mph - N/A   Clear
2:35 PM 33.8 °F 29.6 °F 19.4 °F 56% 30.15 in 10.0 mi WNW 4.6 mph - N/A   Clear
2:55 PM 33.8 °F 28.6 °F 17.6 °F 52% 30.16 in 10.0 mi West 5.8 mph - N/A   Clear
3:15 PM 33.8 °F 27.7 °F 17.6 °F 52% 30.17 in 10.0 mi WNW 6.9 mph - N/A   Clear
3:35 PM 32.0 °F 26.4 °F 17.6 °F 55% 30.18 in 10.0 mi West 5.8 mph - N/A   Clear
3:55 PM 32.0 °F 27.5 °F 15.8 °F 51% 30.19 in 10.0 mi West 4.6 mph - N/A   Clear
4:15 PM 30.2 °F 25.4 °F 15.8 °F 55% 30.20 in 10.0 mi West 4.6 mph - N/A   Clear
4:35 PM 30.2 °F 24.3 °F 15.8 °F 55% 30.21 in 10.0 mi WNW 5.8 mph - N/A   Clear
4:55 PM 30.2 °F 23.4 °F 14.0 °F 51% 30.22 in 10.0 mi WNW 6.9 mph - N/A   Clear
5:15 PM 28.4 °F 20.4 °F 14.0 °F 55% 30.22 in 10.0 mi WNW 8.1 mph - N/A   Clear
5:35 PM 28.4 °F 20.4 °F 12.2 °F 51% 30.24 in 10.0 mi NW 8.1 mph - N/A   Clear
5:55 PM 28.4 °F 19.1 °F 14.0 °F 55% 30.26 in 10.0 mi NW 10.4 mph - N/A   Clear
6:15 PM 26.6 °F 17.5 °F 14.0 °F 59% 30.27 in 10.0 mi NW 9.2 mph - N/A   Clear
6:35 PM 26.6 °F 17.5 °F 12.2 °F 55% 30.28 in 10.0 mi NW 9.2 mph - N/A   Clear
6:55 PM 26.6 °F 17.5 °F 12.2 °F 55% 30.28 in 10.0 mi NW 9.2 mph - N/A   Clear
7:15 PM 24.8 °F 15.3 °F 12.2 °F 59% 30.29 in 10.0 mi NW 9.2 mph - N/A   Clear
7:35 PM 24.8 °F 16.1 °F 12.2 °F 59% 30.30 in 10.0 mi NW 8.1 mph - N/A   Clear
7:55 PM 23.0 °F 12.4 °F 12.2 °F 63% 30.31 in 10.0 mi NW 10.4 mph - N/A   Clear
8:15 PM 21.2 °F 8.3 °F 12.2 °F 68% 30.31 in 10.0 mi NNW 13.8 mph - N/A   Clear
8:35 PM 21.2 °F 8.3 °F 10.4 °F 63% 30.33 in 10.0 mi NNW 13.8 mph - N/A   Clear
8:55 PM 19.4 °F 8.6 °F 10.4 °F 68% 30.34 in 10.0 mi NNW 9.2 mph - N/A   Clear
9:15 PM 19.4 °F 12.8 °F 10.4 °F 68% 30.35 in 10.0 mi North 4.6 mph - N/A   Clear
9:35 PM 17.6 °F 7.3 °F 10.4 °F 73% 30.36 in 10.0 mi NNW 8.1 mph - N/A   Clear
9:55 PM 15.8 °F 5.1 °F 10.4 °F 79% 30.37 in 10.0 mi NNW 8.1 mph - N/A   Clear
10:15 PM 15.8 °F 5.1 °F 10.4 °F 79% 30.38 in 10.0 mi NNW 8.1 mph - N/A   Clear
10:35 PM 15.8 °F 6.1 °F 10.4 °F 79% 30.39 in 10.0 mi NNW 6.9 mph - N/A   Clear
10:55 PM 15.8 °F 6.1 °F 8.6 °F 73% 30.40 in 10.0 mi North 6.9 mph - N/A   Clear
11:15 PM 14.0 °F 2.9 °F 8.6 °F 79% 30.41 in 10.0 mi North 8.1 mph - N/A   Clear
11:35 PM 14.0 °F -0.2 °F 8.6 °F 79% 30.42 in 10.0 mi NNW 12.7 mph - N/A   Clear
11:55 PM 12.2 °F 0.7 °F 8.6 °F 85% 30.43 in 10.0 mi NNW 8.1 mph - N/A   Clear